Weather History for Kremmling, CO

Change the Weather History Date:

Wednesday, November 21, 2012

  Actual Average (KEGE) Record (KEGE)
Temperature  
Mean Temperature 34 °F -  
Max Temperature 55 °F 44 °F 63 °F (1989)
Min Temperature 14 °F 13 °F -22 °F (1956)
Degree Days  
Heating Degree Days 30    
Moisture  
Dew Point 10 °F    
Average Humidity 48    
Maximum Humidity 86    
Minimum Humidity 10    
Precipitation  
Precipitation 0.00 in - - ()
Sea Level Pressure  
Sea Level Pressure 30.18 in    
Wind  
Wind Speed 2 mph (South)    
Max Wind Speed 13 mph    
Max Gust Speed 21 mph    
Averages and records for this station are not official NWS values.
T = Trace of Precipitation, MM = Missing Value Source: NWS Daily Summary

Daily Weather History Graph

Daily Weather History Graph

Search for Another Location

Airport:

Trip Planner

Search our weather history database for the weather conditions in past years. The results will help you decide how hot, cold, wet, or windy it might be!

Date:

Astronomy

Nov. 21, 2012 Rise Set
Actual Time 6:58 AM MST 4:44 PM MST
Civil Twilight 6:28 AM MST 5:13 PM MST
Nautical Twilight 5:55 AM MST 5:47 PM MST
Astronomical Twilight 5:23 AM MST 6:19 PM MST
Moon 1:02 PM MST (11/21) 12:20 AM MST (11/21)
Length of Visible Light 10h 45m
Length of Day
9h 46m
Waxing Gibbous, 62% of the Moon is Illuminated
Nov 21
Waxing Gibbous
Nov 28
Full
Dec 6
Last Quarter
Dec 13
New
Dec 19
First Quarter

Hourly Weather History & Observations

Time (MST) Temp. Windchill Dew Point Humidity Pressure Visibility Wind Dir Wind Speed Gust Speed Precip Events Conditions
12:15 AM 21.2 °F - 14.0 °F 74% 30.30 in - Calm Calm - N/A   Clear
12:35 AM 19.4 °F - 14.0 °F 80% 30.29 in - Calm Calm - N/A   Clear
12:54 AM 19.4 °F - 14.0 °F 80% 30.29 in - Calm Calm - N/A   Clear
1:15 AM 19.4 °F - 14.0 °F 80% 30.30 in - Calm Calm - N/A   Clear
1:35 AM 19.4 °F - 14.0 °F 80% 30.29 in - Calm Calm - N/A   Clear
1:55 AM 19.4 °F - 12.2 °F 74% 30.29 in - Calm Calm - N/A   Clear
2:15 AM 17.6 °F - 12.2 °F 79% 30.30 in - Calm Calm - N/A   Clear
2:35 AM 17.6 °F - 14.0 °F 86% 30.30 in - Calm Calm - N/A   Unknown
2:55 AM 17.6 °F - 14.0 °F 86% 30.29 in - Calm Calm - N/A   Unknown
3:15 AM 17.6 °F - 12.2 °F 79% 30.29 in - Calm Calm - N/A   Clear
3:35 AM 17.6 °F - 14.0 °F 86% 30.28 in - Calm Calm - N/A   Unknown
3:55 AM 17.6 °F - 12.2 °F 79% 30.28 in - Calm Calm - N/A   Clear
4:14 AM 17.6 °F - 12.2 °F 79% 30.28 in - Calm Calm - N/A   Clear
4:35 AM 17.6 °F - 12.2 °F 79% 30.28 in - Calm Calm - N/A   Clear
4:55 AM 17.6 °F - 12.2 °F 79% 30.27 in - Calm Calm - N/A   Clear
5:15 AM 15.8 °F - 10.4 °F 79% 30.27 in - Calm Calm - N/A   Clear
5:35 AM 14.0 °F - 10.4 °F 86% 30.27 in - Calm Calm - N/A   Unknown
5:55 AM 14.0 °F - 10.4 °F 86% 30.26 in - Calm Calm - N/A   Clear
6:14 AM 14.0 °F - 10.4 °F 86% 30.26 in - Calm Calm - N/A   Clear
6:35 AM 14.0 °F - 10.4 °F 86% 30.26 in - Calm Calm - N/A   Unknown
6:55 AM 14.0 °F - 10.4 °F 86% 30.26 in - Calm Calm - N/A   Clear
7:15 AM 14.0 °F - 10.4 °F 86% 30.27 in - Calm Calm - N/A   Unknown
7:35 AM 17.6 °F - 12.2 °F 79% 30.26 in - Calm Calm - N/A   Clear
7:55 AM 17.6 °F - 12.2 °F 79% 30.26 in - Calm Calm - N/A   Clear
8:15 AM 19.4 °F - 14.0 °F 80% 30.26 in - Calm Calm - N/A   Clear
8:35 AM 21.2 °F - 14.0 °F 74% 30.26 in - Calm Calm - N/A   Clear
8:55 AM 23.0 °F - 17.6 °F 80% 30.26 in - Calm Calm - N/A   Clear
9:15 AM 28.4 °F - 19.4 °F 69% 30.25 in - Calm Calm - N/A   Clear
9:34 AM 30.2 °F - 19.4 °F 64% 30.24 in - Calm Calm - N/A   Clear
9:55 AM 32.0 °F - 17.6 °F 55% 30.24 in - Calm Calm - N/A   Clear
10:15 AM 33.8 °F - 19.4 °F 56% 30.22 in - Calm Calm - N/A   Clear
10:34 AM 33.8 °F - 17.6 °F 52% 30.21 in - Calm Calm - N/A   Clear
10:55 AM 37.4 °F 34.9 °F 19.4 °F 48% 30.20 in - WSW 3.5 mph - N/A   Clear
11:14 AM 37.4 °F - 17.6 °F 45% 30.18 in - Calm Calm - N/A   Clear
11:35 AM 42.8 °F - 17.6 °F 36% 30.16 in - Calm Calm - N/A   Clear
11:55 AM 46.4 °F - 17.6 °F 32% 30.15 in - Calm Calm - N/A   Clear
12:15 PM 50.0 °F - 12.2 °F 22% 30.13 in - SSW 3.5 mph - N/A   Clear
12:35 PM 51.8 °F - 8.6 °F 18% 30.12 in - Calm Calm - N/A   Clear
12:55 PM 53.6 °F - 8.6 °F 16% 30.11 in - SW 12.7 mph 18.4 mph N/A   Clear
1:15 PM 53.6 °F - 6.8 °F 15% 30.11 in - SW 11.5 mph 18.4 mph N/A   Clear
1:35 PM 53.6 °F - 3.2 °F 13% 30.11 in - SW 9.2 mph - N/A   Clear
1:55 PM 55.4 °F - 3.2 °F 12% 30.10 in - WSW 5.8 mph 17.3 mph N/A   Clear
2:15 PM 53.6 °F - 1.4 °F 12% 30.10 in - SW 9.2 mph 16.1 mph N/A   Clear
2:35 PM 55.4 °F - -0.4 °F 10% 30.10 in - WSW 10.4 mph 16.1 mph N/A   Clear
2:55 PM 55.4 °F - 1.4 °F 11% 30.10 in - WSW 11.5 mph 20.7 mph N/A   Clear
3:15 PM 53.6 °F - -0.4 °F 11% 30.09 in - WSW 9.2 mph 17.3 mph N/A   Clear
3:35 PM 53.6 °F - 1.4 °F 12% 30.09 in - SW 9.2 mph - N/A   Clear
3:55 PM 53.6 °F - 1.4 °F 12% 30.09 in - SW 12.7 mph 19.6 mph N/A   Clear
4:15 PM 51.8 °F - 1.4 °F 13% 30.09 in - SW 10.4 mph - N/A   Clear
4:35 PM 50.0 °F - 3.2 °F 15% 30.09 in - South 6.9 mph - N/A   Clear
4:55 PM 50.0 °F - 3.2 °F 15% 30.09 in - SSW 5.8 mph - N/A   Clear
5:15 PM 50.0 °F - 5.0 °F 16% 30.09 in - ESE 4.6 mph - N/A   Clear
5:35 PM 46.4 °F 44.3 °F 5.0 °F 18% 30.10 in - SSW 4.6 mph - N/A   Clear
5:55 PM 46.4 °F 45.2 °F 5.0 °F 18% 30.11 in - SE 3.5 mph - N/A   Clear
6:15 PM 46.4 °F 45.2 °F 5.0 °F 18% 30.11 in - SE 3.5 mph - N/A   Clear
6:35 PM 41.0 °F - 6.8 °F 24% 30.10 in - Calm Calm - N/A   Clear
6:55 PM 41.0 °F 35.8 °F 8.6 °F 26% 30.10 in - South 8.1 mph - N/A   Clear
7:15 PM 41.0 °F 38.0 °F 8.6 °F 26% 30.10 in - SE 4.6 mph - N/A   Clear
7:35 PM 41.0 °F 35.2 °F 8.6 °F 26% 30.09 in - SSE 9.2 mph - N/A   Clear
7:54 PM 41.0 °F 37.1 °F 8.6 °F 26% 30.09 in - SSE 5.8 mph - N/A   Clear
8:15 PM 41.0 °F 37.1 °F 8.6 °F 26% 30.09 in - SE 5.8 mph - N/A   Clear
8:35 PM 37.4 °F 30.3 °F 10.4 °F 33% 30.08 in - ESE 10.4 mph - N/A   Clear
8:55 PM 41.0 °F 35.2 °F 10.4 °F 29% 30.09 in - ESE 9.2 mph - N/A   Clear
9:15 PM 41.0 °F 38.0 °F 10.4 °F 29% 30.08 in - SE 4.6 mph - N/A   Clear
9:35 PM 41.0 °F 37.1 °F 8.6 °F 26% 30.09 in - East 5.8 mph - N/A   Clear
9:55 PM 37.4 °F 32.8 °F 10.4 °F 33% 30.09 in - East 5.8 mph - N/A   Clear
10:15 PM 35.6 °F - 10.4 °F 35% 30.09 in - Calm Calm - N/A   Clear
10:35 PM 33.8 °F 30.8 °F 14.0 °F 44% 30.10 in - East 3.5 mph - N/A   Clear
10:55 PM 33.8 °F 27.7 °F 12.2 °F 41% 30.10 in - SE 6.9 mph - N/A   Clear
11:15 PM 39.2 °F 35.9 °F 10.4 °F 31% 30.09 in - East 4.6 mph - N/A   Clear
11:35 PM 33.8 °F - 12.2 °F 41% 30.10 in - Calm Calm - N/A   Clear
11:55 PM 35.6 °F - 12.2 °F 38% 30.10 in - Calm Calm - N/A   Clear